map of DEL home
Great Circle Mapper logo
DEL - Airport
Location
City:  New Delhi, India
Name:Indira Gandhi International Airport
Old (Alt.):Palam Airport
ICAO / IATA:VIDP / DEL

Details
Type:Airport (Aerodrome, Airfield)
Use:Public/Civil, International (customs port of entry)
Latitude:2834'07"N (28.568728)
Longitude:7706'44"E (77.112136)
Elevation:777 ft (237 m)
Runways:3
Longest:14534 ft (4430 m), paved

Time
Time Zone:UTC+5:30
Local Time:

Weather
METAR:VIDP 012330Z 00000KT 3200 HZ SCT100 27/19 Q1011 BECMG 3000
TAF:VIDP 012100Z 0200/0306 25004KT 2500 HZ FEW040
BECMG 0203/0205 29006KT 3500 HZ
BECMG 0207/0208 31008KT 5000 HZ
BECMG 0214/0216 29005KT 3500 HZ NSC
BECMG 0222/0224 00000KT 2500 HZ
BECMG 0303/0305 25004KT 4000 HZ FEW040 SCT100

Related Locations
Nearby:
Farthest:IPC: 12034 mi / 19367 km
Easter Island (Isla de Pascua, Rapa Nui) [Mataveri Intl], VS, CL

Find:

   beyond  
but within

Other Information
Maps:
NOTAMs:
Links:
Sources:

  
flag of India   

Sectional Chart

Flight Planning
at skyvector.com

Satellite Image

Google Maps Satellite View

 

Copyright © 2004-2014 Karl L. Swartz. All rights reserved.
The Great Circle Mapper name and logo are trademarks of the Great Circle Mapper.
All other trademarks mentioned herein belong to their respective owners.
Please see credits for attibutions and further copyright information.

  Follow gcmap on Facebook Follow gcmap on Twitter

hCard Microformat

Geo Microformat